OpenBCM V1.13 (Linux)

Packet Radio Mailbox

DB0FHN

[JN59NK Nuernberg]

 Login: GUEST





  
CX2ACB > KEPS     14.02.03 13:26l 150 Lines 3944 Bytes #999 (0) @ AMSAT
BID : ORB03044.O
Read: DB0FHN GUEST
Subj: Orbital Elements  03044.OSCAR
Path: DB0FHN<DB0ZWI<DB0HST<HB9OK<HA3PG<JE7YGF<7M3TJZ<ON4HU<CX2ACB
Sent: 030214/1112Z @:CX2ACB.MVD.URY.SA #:9763 [Montevideo] $:ORB03044.O
From: CX2ACB@CX2ACB.MVD.URY.SA
To  : KEPS@AMSAT

HR AMSAT ORBITAL ELEMENTS FOR OSCAR SATELLITES
FROM WA5QGD FORT WORTH,TX February 13, 2003
SEND SUBSCRIBE/UNSUBSCRIBE TO majordomo@amsat.org ONLY
BID: ORB03044.O
TO ALL RADIO AMATEURS BT

Satellite: AO-07
Catalog number: 07530
Epoch time:      03044.66387538
Element set:     149
Inclination:      101.7611 deg
RA of node:        92.4958 deg
Eccentricity:    0.0012295
Arg of perigee:    87.8730 deg
Mean anomaly:     272.3745 deg
Mean motion:   12.53564338 rev/day
Decay rate:       -2.9e-07 rev/day^2
Epoch rev:           29257
Checksum:              317

Satellite: AO-10
Catalog number: 14129
Epoch time:      03041.63642645
Element set:     916
Inclination:       25.9157 deg
RA of node:       165.6251 deg
Eccentricity:    0.6028355
Arg of perigee:   326.7167 deg
Mean anomaly:       6.8087 deg
Mean motion:    2.05866882 rev/day
Decay rate:       1.17e-06 rev/day^2
Epoch rev:           14787
Checksum:              314

Satellite: UO-11
Catalog number: 14781
Epoch time:      03044.19524793
Element set:      69
Inclination:       98.1169 deg
RA of node:        18.0769 deg
Eccentricity:    0.0008336
Arg of perigee:   224.4883 deg
Mean anomaly:     135.5663 deg
Mean motion:   14.77980383 rev/day
Decay rate:      1.756e-05 rev/day^2
Epoch rev:            1544
Checksum:              326

Satellite: RS-10/11
Catalog number: 18129
Epoch time:      03043.82529073
Element set:     199
Inclination:       82.9262 deg
RA of node:       150.8051 deg
Eccentricity:    0.0010159
Arg of perigee:   242.7255 deg
Mean anomaly:     117.2863 deg
Mean motion:   13.72700628 rev/day
Decay rate:        9.2e-07 rev/day^2
Epoch rev:           78372
Checksum:              294

Satellite: FO-20
Catalog number: 20480
Epoch time:      03044.47860499
Element set:     462
Inclination:       99.0470 deg
RA of node:         8.1790 deg
Eccentricity:    0.0540693
Arg of perigee:    15.4045 deg
Mean anomaly:     346.2813 deg
Mean motion:   12.83330218 rev/day
Decay rate:        2.9e-07 rev/day^2
Epoch rev:           60986
Checksum:              295

Satellite: RS-12/13
Catalog number: 21089
Epoch time:      03044.88149015
Element set:     490
Inclination:       82.9234 deg
RA of node:       184.8530 deg
Eccentricity:    0.0028080
Arg of perigee:   301.7096 deg
Mean anomaly:      58.1322 deg
Mean motion:   13.74403715 rev/day
Decay rate:        7.5e-07 rev/day^2
Epoch rev:           60314
Checksum:              281

Satellite: RS-15
Catalog number: 23439
Epoch time:      03043.97207093
Element set:    0684
Inclination:      064.8157 deg
RA of node:       050.5320 deg
Eccentricity:    0.0146914
Arg of perigee:   116.2908 deg
Mean anomaly:     245.3192 deg
Mean motion:   11.27547725 rev/day
Decay rate:       -3.5e-07 rev/day^2
Epoch rev:           33496
Checksum:              302

Satellite: FO-29
Catalog number: 24278
Epoch time:      03043.92073258
Element set:    0573
Inclination:      098.5354 deg
RA of node:       195.9065 deg
Eccentricity:    0.0349975
Arg of perigee:   231.1009 deg
Mean anomaly:     125.8435 deg
Mean motion:   13.52871869 rev/day
Decay rate:        4.2e-07 rev/day^2
Epoch rev:           32054
Checksum:              326

Satellite: SO-33
Catalog number: 25509
Epoch time:      03044.54552862
Element set:     778
Inclination:       31.4288 deg
RA of node:       181.5439 deg
Eccentricity:    0.0358375
Arg of perigee:   258.9955 deg
Mean anomaly:      97.0202 deg
Mean motion:   14.27427092 rev/day
Decay rate:      1.126e-05 rev/day^2
Epoch rev:           22459
Checksum:              327

Satellite: AO-40
Catalog number: 26609
Epoch time:      03042.26455231
Element set:     310
Inclination:        8.0482 deg
RA of node:        65.4048 deg
Eccentricity:    0.7940113
Arg of perigee:   142.6388 deg
Mean anomaly:     315.2305 deg
Mean motion:    1.25596326 rev/day
Decay rate:       -6.7e-07 rev/day^2
Epoch rev:            1049
Checksum:              271



Read previous mail | Read next mail


 15.06.2026 09:07:20lGo back Go up